www.pogodaiklimat.ru

Погода и климат >> Архив погоды >> Норвегия >> Fagernes


ПОГОДА в Fagernes

  • Прогноз погоды в Fagernes
  • Монитор погоды в Fagernes
  • Климат города

АРХИВ ПОГОДЫ в Fagernes

Время (UTC), дата Ветер
(напр.,м/с)
 
Видим.   Явления Облачность Т
(С)
Тd
(С)
f
(%)
Тe
(С)
Тes
(С)
Комфортность P
(гПа)
Po
(гПа)
Тmin
(С)
Tmax
(С)
R
(мм)
R24
(мм)
S
(см)
04 13.11 штиль 0 н/о н/о -1.6 -4.7 79 -3 -3 1011.2 966.1
05 13.11 штиль 0
{1}
н/о н/о -2.4 -5.3 80 -3 -3 1012.0 966.7
06 13.11 штиль 0-2
{2}
>70 км ясно -1.6 -5.0 78 -3 -3 1012.5 967.4 -2.5 +3.9
07 13.11 штиль 0
{2}
н/о н/о -2.5 -5.3 81 -4 -4 1013.3 968.0
08 13.11 С 1-2
{2}
н/о н/о -3.0 -6.7 76 -5 -5 1014.1 968.7
09 13.11 С 1-2
{2}
н/о н/о -2.0 -6.0 74 -4 -4 1014.6 969.3
10 13.11 штиль 0-1
{2}
н/о н/о -0.6 -5.5 69 -1 -1 1014.5 969.4
11 13.11 штиль 0
{1}
н/о н/о -0.3 -4.5 73 -1 -1 1014.3 969.2
12 13.11 штиль 0
{2}
н/о н/о +0.6 -5.2 65 -0 -0 1013.7 968.8
13 13.11 штиль 0-1
{1}
н/о н/о +0.6 -4.6 68 -0 -0 1014.1 969.2
14 13.11 штиль 0-1
{1}
н/о н/о -0.8 -5.2 72 -2 -2 1014.3 969.2
15 13.11 штиль 0
{2}
н/о н/о -2.0 -4.9 81 -3 -3 1014.8 969.4
16 13.11 штиль 0 н/о н/о -1.9 -4.8 81 -3 -3 1014.9 969.5
17 13.11 штиль 0-1
{1}
н/о н/о -2.9 -6.3 77 -4 -4 1015.0 969.5
18 13.11 штиль 0
{2}
30 км 3/0
[Ci fib]
-3.4 -6.2 81 -4 -4 1015.0 969.4 +1.3
19 13.11 штиль 0
{1}
н/о н/о -4.1 -6.7 82 -5 -5 1015.2 969.6
20 13.11 СВ 1-2
{2}
н/о н/о -4.6 -7.3 81 -7 -7 1015.0 969.3
21 13.11 штиль 0
{2}
н/о н/о -5.5 -7.6 85 -6 -6 1014.8 968.9
22 13.11 СВ 2-2
{3}
н/о н/о -5.5 -7.6 85 -10 -10 1014.2 968.4
23 13.11 штиль 0
{2}
н/о н/о -5.6 -7.7 85 -7 -7 1013.9 968.1
00 14.11 СВ 2-3
{3}
30 км 3/0
[]
-5.7 -8.1 83 -10 -10 1013.0 967.1
01 14.11 СВ 1-2
{3}
н/о н/о -5.8 -8.2 83 -8 -8 1012.7 966.8
02 14.11 С 1-2
{2}
н/о н/о -5.6 -8.5 80 -8 -8 1012.1 966.3
03 14.11 штиль 0-2
{2}
30 км 3/0
[]
-5.5 -8.7 78 -6 -6 1011.1 965.4
04 14.11 штиль 0-2
{2}
н/о н/о -5.3 -7.7 83 -6 -6 1010.3 964.6
05 14.11 СВ 1-2
{3}
н/о н/о -5.8 -7.8 86 -8 -8 1009.4 963.6
06 14.11 С 1-2
{3}
25 км слабый снег 6/6 1500 м
[Frnb]
-5.3 -7.5 84 -8 -8 1008.7 963.1 -6.1 -2.8
07 14.11 штиль 0-1
{2}
н/о н/о -4.8 -7.1 84 -6 -6 1008.2 962.8
08 14.11 штиль 0
{2}
н/о н/о -4.8 -6.8 86 -6 -6 1008.1 962.6
09 14.11 штиль 0
{1}
н/о н/о -4.3 -6.3 86 -5 -5 1007.9 962.5
10 14.11 штиль 0-1
{1}
н/о н/о -2.4 -5.9 77 -3 -3 1007.5 962.4
11 14.11 штиль 0-1
{2}
н/о н/о -1.8 -6.2 72 -3 -3 1007.5 962.6
12 14.11 штиль 0-1
{2}
30 км {снег} 1/0
[Ac lent]
-1.0 -5.9 69 -2 -1 1007.6 962.7
13 14.11 штиль 0-1
{1}
н/о н/о -1.5 -5.7 73 -2 -2 1007.8 962.8
14 14.11 штиль 0-1
{1}
н/о н/о -2.2 -4.8 82 -3 -3 1008.1 963.0
15 14.11 С 1-2
{2}
65 км 1/1 1500 м
[Cu hum]
-3.4 -5.6 85 -6 -6 1008.6 963.4
16 14.11 СВ 1-2
{2}
н/о н/о -3.6 -5.2 89 -6 -6 1009.2 963.8
17 14.11 СВ 1-2
{3}
н/о н/о -4.0 -5.5 89 -6 -6 1010.0 964.5
18 14.11 СВ 2-3
{3}
65 км 4/3 1500 м
[Cu hum]
-3.8 -5.4 89 -8 -8 1010.4 964.9 -5.6 -0.5
19 14.11 СВ 1-2
{2}
н/о н/о -4.4 -5.8 90 -7 -7 1010.9 965.4
20 14.11 СВ 1-2
{3}
н/о н/о -4.2 -5.7 89 -7 -7 1011.2 965.7
21 14.11 СВ 2-3
{3}
н/о н/о -4.6 -5.7 92 -9 -9 1011.4 965.8
22 14.11 СВ 1-3
{3}
н/о н/о -4.2 -5.6 90 -7 -7 1011.0 965.5
23 14.11 СВ 1-3
{3}
н/о н/о -4.6 -6.0 90 -7 -7 1011.0 965.4
00 15.11 СВ 1-2
{3}
65 км 4/4 1500 м
[Cu hum]
-4.7 -6.1 90 -7 -7 1010.7 965.1
01 15.11 СВ 2-3
{3}
н/о н/о -4.4 -5.8 90 -9 -9 1010.1 964.6
02 15.11 СВ 2-3
{4}
н/о н/о -4.2 -5.7 89 -8 -8 1009.3 963.9
03 15.11 СВ 2-3
{4}
65 км 4/4 1500 м
[Cu hum]
-3.9 -5.5 89 -8 -8 1008.4 963.0
04 15.11 СВ 2-3
{5}
н/о н/о -3.4 -5.3 87 -8 -8 1008.0 962.7
05 15.11 ЮЗ 2-3
{3}
н/о н/о -2.4 -3.8 90 -6 -6 1008.8 963.7
06 15.11 СВ 1-3
{5}
65 км 4/4 1500 м
[Cu hum]
-3.3 -4.9 89 -6 -6 1009.5 964.2 -5.0 -2.4
07 15.11 штиль 0
{3}
н/о н/о -4.4 -5.6 91 -6 -6 1010.5 965.0
08 15.11 штиль 0
{2}
н/о н/о -3.4 -4.4 93 -5 -5 1011.7 966.3
09 15.11 З 1-2
{3}
65 км 3/0
[]
+2.0 -4.1 64 +1 +1 1011.3 966.8
10 15.11 штиль 0-2
{3}
н/о н/о +2.9 -3.6 62 +2 +2 1011.8 967.4
11 15.11 штиль 0
{2}
н/о н/о +4.7 -3.5 55 +4 +4 1012.1 967.9
12 15.11 штиль 0-1
{4}
>70 км ясно +5.3 -4.5 49 +5 +6 1012.4 968.3
13 15.11 штиль 0-1
{3}
н/о н/о +5.5 -3.5 52 +5 +5 1013.0 968.9
14 15.11 штиль 0-1
{2}
н/о н/о +2.8 -3.7 62 +2 +2 1014.0 969.5
15 15.11 штиль 0
{1}
н/о н/о +1.5 -3.7 68 +1 +1 1014.9 970.1
16 15.11 З 1-2
{2}
н/о н/о +2.2 -4.9 59 +1 +1 1015.3 970.6
17 15.11 штиль 0-1
{2}
н/о н/о +2.3 -4.2 62 +2 +2 1015.5 970.8
18 15.11 штиль 0-1
{3}
>70 км ясно +1.6 -3.4 69 +1 +1 1016.2 971.4 -4.4 +5.6
19 15.11 З 1-3
{3}
н/о н/о +3.8 -4.9 53 +3 +3 1015.8 971.4
20 15.11 ЮЗ 2-4
{5}
н/о н/о +3.8 -4.1 56 +2 +2 1016.5 972.0
21 15.11 штиль 0-3
{4}
н/о н/о +3.3 -5.1 54 +3 +3 1017.1 972.5
22 15.11 СВ 1-2
{2}
н/о н/о +1.0 -4.8 65 -0 -0 1017.8 972.8
23 15.11 СВ 1-2
{2}
н/о н/о 0.0 -4.4 72 -2 -2 1018.3 973.1
00 16.11 штиль 0-2
{5}
>70 км ясно +0.2 -5.4 66 -1 -1 1018.4 973.3
01 16.11 штиль 0
{2}
н/о н/о 0.0 -4.6 71 -1 -1 1018.3 973.2
02 16.11 С 1-2
{2}
н/о н/о -0.3 -4.4 74 -2 -2 1018.3 973.1
03 16.11 С 1-2
{2}
55 км ясно -0.6 -4.7 74 -2 -2 1018.0 972.8
04 16.11 С 1-2
{3}
н/о н/о -0.5 -4.9 72 -2 -2 1017.6 972.4
05 16.11 СВ 1-2
{2}
н/о н/о -0.9 -5.0 74 -3 -3 1017.0 971.7
06 16.11 СВ 1-2
{3}
>70 км ясно -0.9 -4.8 75 -3 -3 1015.8 970.6 -1.3 +4.2
07 16.11 СВ 1-2
{2}
н/о н/о -1.0 -4.9 75 -3 -3 1015.4 970.2
08 16.11 СВ 1-2
{3}
н/о н/о -0.7 -4.6 75 -3 -3 1015.0 969.8
09 16.11 С 2-2
{3}
25 км 10/0
[As op]
-0.8 -4.4 77 -4 -4 1014.0 968.9
10 16.11 СВ 2-3
{3}
н/о н/о -0.7 -4.4 76 -4 -4 1012.8 967.7
11 16.11 СВ 2-3
{3}
н/о н/о 0.0 -4.1 74 -3 -3 1011.4 966.5
12 16.11 СВ 2-3
{3}
25 км 10/0
[As op]
+0.3 -4.1 72 -3 -3 1010.1 965.4
13 16.11 СВ 2-3
{3}
н/о н/о +0.7 -3.6 73 -3 -3 1008.7 964.0
14 16.11 СВ 1-3
{4}
н/о н/о -0.2 -1.6 90 -2 -2 1007.1 962.4
15 16.11 СВ 1-3
{3}
4800 м снег 10/10 300 м
[Frnb]
+0.2 -1.1 91 -2 -2 1004.8 960.2
16 16.11 СВ 1-2
{3}
н/о н/о +0.5 -0.8 91 -2 -2 1002.7 958.3
17 16.11 штиль 0-2
{3}
н/о н/о +1.0 -0.4 90 -0 -0 1002.6 958.3
18 16.11 штиль 0
{4}
30 км 10/10 1000 м
[Frnb]
+0.7 -0.6 91 -1 -1 1002.8 958.4 -1.3 +1.1
19 16.11 штиль 0
{1}
н/о н/о +0.1 -1.0 92 -1 -1 1002.4 958.0
20 16.11 штиль 0
{1}
н/о н/о -0.3 -1.2 94 -2 -2 1002.6 958.1
21 16.11 штиль 0
{2}
н/о н/о -1.6 -2.5 94 -3 -3 1003.1 958.4
22 16.11 З 1-3
{3}
н/о н/о -0.8 -1.5 95 -3 -3 1003.0 958.4
23 16.11 штиль 0-1
{2}
н/о н/о -1.0 -1.7 95 -2 -2 1003.7 959.1
00 17.11 штиль 0-1
{3}
н/о н/о -0.6 -1.7 92 -2 -2 1004.1 959.5
01 17.11 штиль 0-2
{3}
н/о н/о +0.1 -3.4 77 -1 -1 1004.6 960.0
02 17.11 СЗ 1-3
{3}
н/о н/о +2.0 -5.4 58 +1 +1 1005.1 960.8
03 17.11 штиль 0
{1}
н/о н/о +0.8 -4.4 68 0 0 1005.5 961.0
04 17.11 штиль 0-1
{2}
н/о н/о +0.4 -4.6 69 -0 -0 1005.6 961.1
05 17.11 штиль 0-1
{2}
н/о н/о +0.3 -4.1 72 -1 -1 1004.5 960.0
06 17.11 В 3-4
{4}
н/о н/о +0.5 -3.2 76 -4 -4 1003.8 959.3 -2.0 +2.0
07 17.11 В 2-3
{3}
н/о н/о +0.1 -1.5 89 -4 -4 1003.9 959.4
08 17.11 штиль 0
{3}
н/о н/о -0.2 -1.2 93 -2 -2 1004.2 959.6
09 17.11 штиль 0
{1}
н/о н/о -0.1 -1.2 92 -1 -1 1003.2 958.7
10 17.11 штиль 0-1
{2}
н/о н/о +1.6 -1.5 80 +1 +1 1003.7 959.4
11 17.11 штиль 0-1
{3}
н/о н/о +1.6 -1.0 83 +1 +1 1003.0 958.8
12 17.11 штиль 0-1
{3}
н/о н/о +1.5 -1.9 78 +1 +1 1003.0 958.7
13 17.11 штиль 0-3
{4}
н/о н/о +3.2 -1.7 70 +2 +2 1003.0 959.0
14 17.11 штиль 0-1
{3}
н/о н/о +1.7 -0.7 84 +1 +1 1003.1 958.9
15 17.11 штиль 0
{2}
30 км слабый дождь со снегом 10/4 600 м
[St As trans]
+1.0 -0.7 88 -0 -0 1002.7 958.4
16 17.11 штиль 0
{2}
н/о н/о +1.2 -1.3 83 0 0 1002.2 957.9
17 17.11 В 1-3
{3}
н/о н/о +2.2 -1.4 77 +1 +1 1001.0 957.0
18 17.11 В 2-3
{4}
н/о н/о +2.0 -1.1 80 -1 -1 1001.1 957.0 -0.3 +3.5
19 17.11 В 2-3
{3}
н/о н/о +2.0 -1.4 78 -1 -1 1000.1 956.1
20 17.11 С 1-2
{3}
н/о н/о +1.5 -1.9 78 -0 -0 999.7 955.6
21 17.11 ЮЗ 2-5
{5}
н/о н/о +2.4 -1.6 75 -1 -1 999.8 955.8
22 17.11 штиль 0
{4}
н/о н/о +0.4 -1.3 88 -1 -1 999.4 955.1
23 17.11 СВ 1-3
{3}
н/о н/о +0.7 -1.5 85 -1 -1 998.4 954.3
00 18.11 штиль 0-2
{5}
30 км 10/0
[As op]
+1.6 -2.5 74 +1 +1 997.8 953.8
01 18.11 штиль 0-1
{1}
н/о н/о +0.2 -3.7 75 -1 -1 997.5 953.3
02 18.11 штиль 0
{4}
н/о н/о -0.6 -4.2 77 -2 -2 997.4 953.0
03 18.11 штиль 0
{1}
60 км 3/0
[Ac trans]
-1.9 -4.5 82 -3 -3 997.1 952.5
04 18.11 штиль 0-1
{2}
н/о н/о -3.0 -5.6 82 -4 -4 996.8 952.1
05 18.11 штиль 0
{1}
н/о н/о -3.9 -5.7 87 -5 -5 996.6 951.8
06 18.11 штиль 0
{4}
>70 км 1/0
[Ac trans]
-4.0 -5.4 90 -5 -5 996.2 951.4 -4.4 +2.6
07 18.11 штиль 0-1
{1}
н/о н/о -3.7 -5.9 85 -5 -5 995.7 950.9
08 18.11 штиль 0-1
{2}
н/о н/о -3.3 -6.4 79 -4 -4 995.1 950.5
09 18.11 С 1-2
{2}
55 км 9/0
[As trans]
-2.3 -6.0 76 -4 -4 994.6 950.1
10 18.11 штиль 0-1
{2}
н/о н/о -1.2 -5.1 75 -2 -2 993.7 949.4
11 18.11 СВ 1-2
{3}
н/о н/о -1.0 -4.9 75 -3 -3 992.7 948.5
12 18.11 С 1-2
{3}
55 км 10/0
[As trans]
-0.6 -4.8 73 -2 -2 992.1 948.0
13 18.11 штиль 0-1
{3}
н/о н/о -1.1 -3.9 81 -2 -2 992.0 947.8
14 18.11 штиль 0-1
{2}
н/о н/о -1.5 -4.1 82 -3 -3 991.8 947.6
15 18.11 штиль 0
{2}
55 км 6/4 1000 м
[Frnb As op Cs]
-2.4 -4.5 85 -4 -4 991.8 947.4
16 18.11 штиль 0
{1}
н/о н/о -2.0 -3.9 87 -3 -3 991.6 947.3
17 18.11 штиль 0
{1}
н/о н/о -1.8 -3.5 88 -3 -3 991.8 947.6
18 18.11 штиль 0-1
{3}
н/о н/о -1.9 -3.4 89 -3 -3 992.6 948.2 -4.5 -0.5
19 18.11 штиль 0
{1}
н/о н/о -1.7 -3.2 89 -3 -3 993.6 949.2
20 18.11 штиль 0
{2}
н/о н/о -1.7 -3.2 89 -3 -3 994.8 950.4
21 18.11 штиль 0-1
{1}
н/о н/о -1.9 -3.7 87 -3 -3 996.1 951.7
22 18.11 штиль 0
{1}
н/о н/о -1.4 -4.0 82 -2 -2 997.6 953.1
23 18.11 штиль 0
{1}
н/о н/о -2.4 -4.3 87 -4 -4 998.2 953.6
00 19.11 штиль 0-1
{2}
н/о н/о -2.3 -4.2 87 -3 -3 999.0 954.4
01 19.11 штиль 0 н/о н/о -2.3 -3.9 89 -3 -3 999.8 955.1
02 19.11 штиль 0-1
{1}
н/о н/о -3.0 -4.9 87 -4 -4 1000.6 955.7
03 19.11 штиль 0
{1}
30 км 10/0
[Ac cuf]
-2.7 -4.5 87 -4 -4 1001.2 956.4
04 19.11 штиль 0
{1}
н/о н/о -3.3 -4.8 89 -4 -4 1002.5 957.5
05 19.11 штиль 0
{2}
н/о н/о -4.1 -5.6 89 -5 -5 1003.3 958.2
06 19.11 штиль 0-2
{2}
н/о н/о -3.8 -5.0 91 -5 -5 1003.9 958.8 -4.5 -1.0
07 19.11 штиль 0-2
{2}
н/о н/о -6.1 -7.4 90 -7 -7 1005.1 959.6
08 19.11 штиль 0
{1}
н/о н/о -5.4 -6.6 91 -6 -6 1005.8 960.3
09 19.11 штиль 0
{1}
65 км 1/1 300 м
[St]
-6.1 -7.6 89 -7 -7 1006.8 961.1
10 19.11 ЮЗ 1-2
{3}
н/о н/о -4.2 -5.4 91 -7 -7 1006.9 961.6
11 19.11 штиль 0
{2}
н/о н/о -2.9 -6.1 79 -4 -4 1007.0 961.9
12 19.11 штиль 0-1
{3}
н/о н/о -2.0 -5.1 79 -3 -3 1006.9 961.9
13 19.11 штиль 0-1
{1}
н/о н/о -3.7 -5.5 87 -5 -5 1007.2 962.0
14 19.11 штиль 0
{1}
н/о н/о -4.7 -6.3 89 -6 -6 1007.7 962.2
15 19.11 штиль 0
{1}
н/о н/о -4.7 -5.9 91 -6 -6 1007.9 962.5
16 19.11 штиль 0 н/о н/о -4.3 -5.4 92 -5 -5 1007.7 962.4
17 19.11 штиль 0 н/о н/о -4.4 -5.5 92 -6 -6 1008.1 962.7
18 19.11 штиль 0
{1}
н/о н/о -5.1 -6.3 91 -6 -6 1008.5 962.9 -6.4 -1.0
19 19.11 штиль 0 н/о н/о -4.7 -5.7 93 -6 -6 1008.8 963.3
20 19.11 штиль 0 н/о н/о -5.1 -6.1 93 -6 -6 1009.3 963.7
21 19.11 штиль 0-1
{2}
н/о н/о -5.4 -6.7 91 -6 -6 1009.7 964.0
22 19.11 штиль 0
{1}
н/о н/о -6.3 -7.6 90 -7 -7 1009.8 964.0
23 19.11 штиль 0
{2}
н/о н/о -6.5 -7.8 90 -7 -7 1010.0 964.2
00 20.11 штиль 0
{2}
60 км 5/0
[Ac cuf]
-6.6 -8.2 88 -7 -7 1010.2 964.4
01 20.11 штиль 0
{2}
н/о н/о -7.1 -8.7 88 -8 -8 1010.3 964.4
02 20.11 штиль 0
{1}
н/о н/о -5.9 -7.4 89 -7 -7 1010.2 964.5
03 20.11 штиль 0
{1}
60 км 5/0
[Ac cuf]
-6.1 -7.6 89 -7 -7 1010.4 964.6

 

Местоположение метеостанции Fagernes (Норвегия): широта 60.99 долгота 9.24 высота над уровнем моря 365 м.

В архиве по умолчанию представлена погода в Fagernes за последнюю неделю. Архивные данные за месяц целиком и за предыдущие месяцы, начиная с января 2011 года, Вы можете получить, выбрав интересующий диапазон дат из раскрывающегося списка и нажав кнопку "Ввод!".

Внимание! Время в таблицах - всемирное. Для получения местного времени необходимо прибавить поправку, которая в Fagernes равна 1 ч.

Смотрите также архив погоды в соседних городах и на ближайших метеорологических станциях:

Погода в Fagernes Lufthavn (Норвегия) (4 км)
Погода в Loken i Volbu (Норвегия) (17 км)
Погода в Beitostolen II (Норвегия) (34 км)
Погода в Hemsedal II (Норвегия) (38 км)
Погода в Hemsedal-Hollekolten (Норвегия) (41 км)
Погода в Vest-Torpa II (Норвегия) (43 км)
Погода в Nesbyen-Todokk (Норвегия) (47 км)
Погода в Skabu (Норвегия) (61 км)
Погода в Filefjell-Kyrkjestolane (Норвегия) (64 км)
Погода в Lillehammer (Норвегия) (68 км)

Пояснения к столбцам:

Ветер - указаны скорость ветра в м/с - средняя за 10 мин, порывы в срок и между сроками (в фигурных скобках) и направление, откуда дует ветер: С - северный, СВ - северо-восточный, В - восточный, ЮВ - юго-восточный, Ю - южный, ЮЗ - юго-западный, З - западный, СЗ - северо-западный.
Видимость - горизонтальная дальность видимости в метрах или километрах. При видимости от 1 до 10 км при отсутствии осадков обычно наблюдается дымка, при ухудшении видимости до 1 км и менее - туман. В сухую погоду видимость может ухудшаться дымом, пылью или мглою.
Явления - указаны атмосферные явления, наблюдавшиеся в срок или в последний час перед сроком; фигурными скобками обозначены явления, наблюдавшиеся между сроками (за 1-3 часа до срока); квадратными скобками обозначены град или гололедные отложения с указанием их диаметра в мм.
Облачность - указаны через наклонную черту общая и нижняя облачность в баллах и высота нижней границы облаков в метрах; квадратными скобками обозначены формы облаков: Ci - перистые, Cs - перисто-слоистые, Cc - перисто-кучевые, Ac - высококучевые, As - высокослоистые, Sc - слоисто-кучевые, Ns - слоисто-дождевые, Cu - кучевые, Cb - кучево-дождевые. Подробнее классификацию облаков см. в Атласе облаков (PDF).
T - Температура воздуха - температура, измеренная на высоте 2 м над землей.
Td - Температура точки росы - температура, при понижении до которой содержащийся в воздухе водяной пар достигнет насыщения.
f - Относительная влажность воздуха - влажноcть воздуха, измеренная на высоте 2 м над землей.
Te - Эффективная температура - температура, которую ощущает одетый по сезону человек в тени. Характеристика душности погоды. При расчете учитывается влияние влажности воздуха и скорости ветра на теплоощущения человека.
Tes - Эффективная температура на солнце - температура, которую ощущает человек, с поправкой на солнечный нагрев. Характеристика знойности погоды. Зависит от высоты солнца над горизонтом, облачности и скорости ветра. Ночью, в пасмурную погоду, а также при ветре 12 м/с и более поправка равна нулю.
P - Атмосферное давление - приведенное к уровню моря атмосферное давление.
Po - Атмосферное давление - измеренное на уровне метеостанции атмосферное давление.
Tmin - Минимальная температура - минимум температуры воздуха на высоте 2 м над землей.
Tmax - Максимальная температура - максимум температуры воздуха на высоте 2 м над землей.
R - Количество осадков - Количество выпавших осадков за период времени, мм. При наведении курсора мыши на число - период времени, за который выпало указанное количество осадков.
R24 - Количество осадков - Количество выпавших осадков за 24 часа, мм.
S - Снежный покров - Высота снежного покрова, см. При наведении курсора мыши на число - состояние снежного покрова и степень покрытия местности в баллах.